GW6661 Weather Reports


time (UTC)temp
C
wind
direction
speed
KPH
gust
KPH
rain 1hr
cm
rain 24hr
cm
rain mn
cm
humidity
%
barometer
mb
20260505140504 20 190 0.0 6.4 0.00 0.00 0.00 63 1016.1
20260505125003 16 158 6.4 6.4 0.00 0.00 0.00 74 1016.7
20260505124522 15 163 3.2 8.0 0.00 0.00 0.00 76 1016.7
20260505124003 15 12 0.0 3.2 0.00 0.00 0.00 77 1016.6
20260505123503 15 185 1.6 3.2 0.00 0.00 0.00 79 1016.7
20260505123003 15 246 0.0 3.2 0.00 0.00 0.00 79 1016.7
20260505122503 15 269 0.0 4.8 0.00 0.00 0.00 79 1016.7
20260505122003 14 120 0.0 3.2 0.00 0.00 0.00 81 1016.9
20260505121503 13 304 0.0 3.2 0.00 0.00 0.00 83 1016.9
20260505121003 13 119 0.0 3.2 0.00 0.00 0.00 86 1016.7
20260505120503 12 95 1.6 1.6 0.00 0.00 0.00 88 1016.7
20260505120005 12 113 0.0 1.6 0.00 0.00 0.00 90 1016.9
20260505115504 11 49 0.0 1.6 0.00 0.00 0.00 91 1016.6
20260505115004 11 79 0.0 1.6 0.00 0.00 0.00 91 1016.8
20260505114504 11 65 1.6 1.6 0.00 0.00 0.00 90 1016.7
20260505114023 11 65 0.0 3.2 0.00 0.00 0.00 91 1016.8
20260505113504 11 57 1.6 3.2 0.00 0.00 0.00 91 1016.7
20260505113004 10 66 1.6 3.2 0.00 0.00 0.00 92 1016.4
20260505112503 10 93 1.6 1.6 0.00 0.00 0.00 93 1016.5
20260505112003 10 66 0.0 3.2 0.00 0.00 0.00 93 1016.4
20260505111503 10 81 1.6 1.6 0.00 0.00 0.00 94 1016.6
20260505111003 10 89 0.0 1.6 0.00 0.00 0.00 94 1016.4
20260505110503 10 63 0.0 0.0 0.00 0.00 0.00 94 1016.4
20260505102003 10 77 0.0 1.6 0.00 0.00 0.00 92 1015.8
20260505101522 10 77 0.0 1.6 0.00 0.00 0.00 91 1015.7
20260505101100 10 70 0.0 1.6 0.00 0.00 0.00 91 1015.7
20260505100522 10 66 1.6 1.6 0.00 0.00 0.00 91 1015.7
20260505100042 10 59 1.6 1.6 0.00 0.00 0.00 91 1015.7
20260505095523 10 51 3.2 3.2 0.00 0.00 0.00 91 1015.4
20260505095004 10 60 0.0 3.2 0.00 0.00 0.00 91 1015.3
20260505094504 10 76 1.6 3.2 0.00 0.00 0.00 90 1015.3
20260505094004 10 70 0.0 1.6 0.00 0.00 0.00 90 1015.2
20260505093523 10 76 0.0 1.6 0.00 0.00 0.00 90 1015.2
20260505093004 10 85 0.0 0.0 0.00 0.00 0.00 90 1015.2
20260505092503 10 89 0.0 1.6 0.00 0.00 0.00 90 1015.2
20260505092003 10 68 0.0 1.6 0.00 0.00 0.00 89 1015.4
20260505091522 10 71 1.6 1.6 0.00 0.00 0.00 89 1015.3
20260505091003 10 66 0.0 1.6 0.00 0.00 0.00 89 1015.3
20260505090503 11 63 1.6 1.6 0.00 0.00 0.00 88 1015.4
20260505090022 11 166 0.0 1.6 0.00 0.00 0.00 88 1015.5
20260505085503 11 94 0.0 1.6 0.00 0.00 0.00 88 1015.1
20260505085003 11 62 0.0 1.6 0.00 0.00 0.00 87 1015.3
20260505084522 11 76 0.0 0.0 0.00 0.00 0.00 87 1014.9
20260505084003 11 116 0.0 1.6 0.00 0.00 0.00 86 1014.9
20260505083503 11 50 1.6 3.2 0.00 0.00 0.00 85 1015.4
20260505083003 11 57 1.6 1.6 0.00 0.00 0.00 85 1015.1
20260505082504 11 89 0.0 1.6 0.00 0.00 0.00 84 1015.3
20260505082004 11 80 1.6 1.6 0.00 0.00 0.00 84 1015.1
20260505081542 12 94 1.6 3.2 0.00 0.00 0.00 84 1014.8
20260505081003 12 59 1.6 1.6 0.00 0.00 0.00 83 1015.1
20260505080503 12 111 0.0 3.2 0.00 0.00 0.00 83 1015.1
20260505080042 12 74 1.6 3.2 0.00 0.00 0.00 82 1015.0
20260505075504 12 87 1.6 1.6 0.00 0.00 0.00 81 1015.0
20260505075004 12 103 0.0 3.2 0.00 0.00 0.00 81 1015.0
20260505074523 13 46 3.2 3.2 0.00 0.00 0.00 80 1014.7
20260505074004 12 84 1.6 1.6 0.00 0.00 0.00 80 1014.8
20260505073504 13 51 1.6 1.6 0.00 0.00 0.00 79 1014.7
20260505073004 13 103 0.0 1.6 0.00 0.00 0.00 79 1014.8
20260505072522 13 157 0.0 1.6 0.00 0.00 0.00 78 1014.7
20260505072003 13 154 0.0 3.2 0.00 0.00 0.00 77 1014.8
20260505071503 13 136 1.6 1.6 0.00 0.00 0.00 77 1014.6
20260505071005 13 80 0.0 1.6 0.00 0.00 0.00 75 1014.5
20260505070522 14 113 0.0 3.2 0.00 0.00 0.00 75 1014.6
20260505070003 14 105 0.0 3.2 0.00 0.00 0.00 75 1014.7
20260505065503 14 89 0.0 1.6 0.00 0.00 0.00 74 1014.6
20260505065003 15 5 0.0 1.6 0.00 0.00 0.00 73 1014.4
20260505064522 15 111 1.6 3.2 0.00 0.00 0.00 72 1014.6
20260505064003 15 60 0.0 1.6 0.00 0.00 0.00 72 1014.4
20260505063522 15 89 0.0 1.6 0.00 0.00 0.00 72 1014.4
20260505063003 15 41 0.0 3.2 0.00 0.00 0.00 71 1014.7
20260505062503 15 98 1.6 3.2 0.00 0.00 0.00 71 1014.6
20260505062003 15 358 3.2 4.8 0.00 0.00 0.00 71 1014.4
20260505061504 15 105 1.6 3.2 0.00 0.00 0.00 71 1014.4
20260505061003 15 61 1.6 4.8 0.00 0.00 0.00 71 1014.6
20260505060503 15 79 0.0 3.2 0.00 0.00 0.00 70 1014.7
20260505060003 15 300 0.0 4.8 0.00 0.00 0.00 70 1014.6
20260505055503 15 106 1.6 4.8 0.00 0.00 0.00 70 1014.5
20260505055003 15 151 1.6 4.8 0.00 0.00 0.00 70 1014.7
20260505054504 15 87 1.6 3.2 0.00 0.00 0.00 71 1014.7
20260505054003 15 76 0.0 3.2 0.00 0.00 0.00 71 1014.6
20260505053503 15 141 0.0 1.6 0.00 0.00 0.00 71 1014.9
20260505053022 15 77 0.0 3.2 0.00 0.00 0.00 71 1014.8
20260505052503 15 149 1.6 3.2 0.00 0.00 0.00 71 1014.6
20260505052003 15 105 0.0 1.6 0.00 0.00 0.00 72 1014.7
20260505051523 15 51 0.0 1.6 0.00 0.00 0.00 71 1014.8
20260505051022 15 219 1.6 3.2 0.00 0.00 0.00 71 1014.9
20260505050503 15 62 0.0 1.6 0.00 0.00 0.00 71 1014.7
20260505041542 15 122 1.6 3.2 0.00 0.00 0.00 69 1014.9
20260505041023 14 40 1.6 3.2 0.00 0.00 0.00 71 1014.9
20260505040504 14 116 0.0 3.2 0.00 0.00 0.00 70 1014.9
20260505040004 14 129 0.0 0.0 0.00 0.00 0.00 71 1014.8
20260505035504 14 30 0.0 1.6 0.00 0.00 0.00 70 1014.9
20260505035004 14 37 0.0 1.6 0.00 0.00 0.00 69 1014.9
20260505034503 15 89 0.0 1.6 0.00 0.00 0.00 69 1014.9
20260505034004 15 77 1.6 3.2 0.00 0.00 0.00 67 1014.8
20260505033541 15 80 1.6 3.2 0.00 0.00 0.00 66 1014.8
20260505033003 15 76 0.0 1.6 0.00 0.00 0.00 66 1014.9
20260505032503 15 53 3.2 3.2 0.00 0.00 0.00 65 1014.8
20260505032003 15 313 0.0 1.6 0.00 0.00 0.00 64 1015.1
20260505031522 15 269 0.0 3.2 0.00 0.00 0.00 64 1014.9
20260505031022 15 13 0.0 3.2 0.00 0.00 0.00 65 1014.9
20260505030503 15 89 0.0 1.6 0.00 0.00 0.00 64 1014.9
20260505030004 15 54 1.6 1.6 0.00 0.00 0.00 65 1015.0
20260505025503 15 89 0.0 3.2 0.00 0.00 0.00 64 1015.1
20260505025004 15 32 0.0 1.6 0.00 0.00 0.00 65 1015.0
20260505024503 15 44 0.0 1.6 0.00 0.00 0.00 64 1014.8
20260505024003 15 23 1.6 3.2 0.00 0.00 0.00 65 1014.9
20260505023503 15 64 0.0 1.6 0.00 0.00 0.00 65 1014.8
20260505023003 15 50 1.6 1.6 0.00 0.00 0.00 64 1014.5
20260505022503 15 95 0.0 3.2 0.00 0.00 0.00 63 1014.5
20260505022022 15 95 0.0 1.6 0.00 0.00 0.00 62 1014.6
20260505021503 15 122 0.0 1.6 0.00 0.00 0.00 62 1014.6
20260505021003 15 37 0.0 1.6 0.00 0.00 0.00 62 1014.6
20260505020503 15 89 0.0 1.6 0.00 0.00 0.00 62 1014.4
20260505020022 15 49 0.0 0.0 0.00 0.00 0.00 60 1014.4
20260505015522 15 66 0.0 0.0 0.00 0.00 0.00 60 1014.4
20260505015003 15 55 0.0 0.0 0.00 0.00 0.00 60 1014.2
20260505014503 15 35 1.6 3.2 0.00 0.00 0.00 57 1014.3
20260505014022 15 126 0.0 3.2 0.00 0.00 0.00 57 1014.3
20260505013503 16 114 0.0 1.6 0.00 0.00 0.00 56 1014.2
20260505013003 16 41 0.0 1.6 0.00 0.00 0.00 55 1013.9
20260505012503 16 130 1.6 1.6 0.00 0.00 0.00 54 1014.0
20260505012003 16 135 0.0 1.6 0.00 0.00 0.00 54 1013.8
20260505011503 16 124 0.0 0.0 0.00 0.00 0.00 53 1013.8
20260505011003 16 129 0.0 0.0 0.00 0.00 0.00 53 1013.7
20260505010503 17 49 0.0 3.2 0.00 0.00 0.00 54 1013.6
20260505010022 17 68 1.6 1.6 0.00 0.00 0.00 52 1013.7
20260505005503 17 93 0.0 0.0 0.00 0.00 0.00 50 1013.3
20260505005004 17 50 0.0 1.6 0.00 0.00 0.00 50 1013.5
20260505004503 17 325 0.0 0.0 0.00 0.00 0.00 49 1013.4
20260505004003 17 99 0.0 1.6 0.00 0.00 0.00 48 1013.3
20260505003503 18 89 0.0 1.6 0.00 0.00 0.00 50 1013.1
20260505003003 18 157 0.0 0.0 0.00 0.00 0.00 50 1013.0
20260505002503 18 164 0.0 1.6 0.00 0.00 0.00 49 1013.1
20260505002003 18 142 0.0 0.0 0.00 0.00 0.00 52 1012.9
20260505001503 19 142 0.0 0.0 0.00 0.00 0.00 49 1013.1
20260505001003 20 205 0.0 1.6 0.00 0.00 0.00 46 1012.8
20260505000503 20 217 0.0 1.6 0.00 0.00 0.00 44 1012.6
20260505000003 20 148 0.0 1.6 0.00 0.00 0.00 43 1012.7
20260504235503 21 165 0.0 1.6 0.00 0.00 0.00 41 1012.4
20260504235022 21 66 0.0 0.0 0.00 0.00 0.00 38 1012.2
20260504234503 22 144 0.0 1.6 0.00 0.00 0.00 38 1012.4
20260504234003 22 283 0.0 1.6 0.00 0.00 0.00 31 1012.4
20260504233522 23 274 0.0 3.2 0.00 0.00 0.00 35 1012.4
20260504233003 23 277 1.6 3.2 0.00 0.00 0.00 33 1012.3
20260504232503 23 15 0.0 3.2 0.00 0.00 0.00 30 1012.2
20260504232003 23 243 0.0 3.2 0.00 0.00 0.00 31 1012.2
20260504231541 23 15 0.0 1.6 0.00 0.00 0.00 33 1012.3
20260504231003 23 251 3.2 3.2 0.00 0.00 0.00 35 1012.0
20260504230503 24 235 0.0 1.6 0.00 0.00 0.00 37 1012.1
20260504230003 24 220 3.2 3.2 0.00 0.00 0.00 30 1011.8
20260504225503 25 233 0.0 1.6 0.00 0.00 0.00 33 1011.9
20260504225003 25 272 0.0 1.6 0.00 0.00 0.00 29 1012.1
20260504224503 25 257 3.2 3.2 0.00 0.00 0.00 30 1011.9
20260504224003 25 184 0.0 3.2 0.00 0.00 0.00 31 1012.0
20260504223503 26 251 1.6 3.2 0.00 0.00 0.00 31 1012.0
20260504223022 26 249 3.2 3.2 0.00 0.00 0.00 27 1011.8
20260504222503 26 348 1.6 3.2 0.00 0.00 0.00 27 1011.9
20260504222003 26 194 1.6 4.8 0.00 0.00 0.00 26 1011.9
20260504221503 27 204 3.2 4.8 0.00 0.00 0.00 25 1011.8
20260504221022 28 324 1.6 3.2 0.00 0.00 0.00 25 1012.0
20260504220503 28 227 1.6 3.2 0.00 0.00 0.00 24 1012.0
20260504220003 28 89 0.0 6.4 0.00 0.00 0.00 24 1012.0
20260504215503 28 230 3.2 6.4 0.00 0.00 0.00 25 1012.0
20260504215003 28 265 0.0 3.2 0.00 0.00 0.00 24 1011.7
20260504214503 28 190 0.0 3.2 0.00 0.00 0.00 25 1011.9
20260504214003 27 268 1.6 3.2 0.00 0.00 0.00 27 1012.0
20260504213503 27 240 0.0 8.0 0.00 0.00 0.00 26 1012.0
20260504213022 28 97 3.2 4.8 0.00 0.00 0.00 26 1012.1
20260504212503 28 282 1.6 6.4 0.00 0.00 0.00 25 1012.0
20260504212022 28 283 3.2 4.8 0.00 0.00 0.00 26 1011.9
20260504211503 28 331 0.0 4.8 0.00 0.00 0.00 26 1012.0
20260504211003 28 224 3.2 4.8 0.00 0.00 0.00 28 1012.0
20260504210503 28 294 1.6 4.8 0.00 0.00 0.00 26 1012.1
20260504210003 28 250 4.8 4.8 0.00 0.00 0.00 27 1012.0
20260504205503 28 311 1.6 6.4 0.00 0.00 0.00 26 1012.1
20260504205003 28 184 0.0 4.8 0.00 0.00 0.00 26 1012.2
20260504204503 28 171 1.6 8.0 0.00 0.00 0.00 25 1012.0
20260504204003 28 287 3.2 6.4 0.00 0.00 0.00 27 1012.2
20260504203522 28 129 3.2 8.0 0.00 0.00 0.00 26 1012.3
20260504203022 28 323 0.0 6.4 0.00 0.00 0.00 27 1012.2
20260504202504 28 134 6.4 6.4 0.00 0.00 0.00 27 1012.4
20260504202004 28 291 0.0 4.8 0.00 0.00 0.00 27 1012.3
20260504201523 28 357 3.2 8.0 0.00 0.00 0.00 27 1012.4
20260504201004 27 19 1.6 6.4 0.00 0.00 0.00 27 1012.5
20260504200542 28 286 1.6 4.8 0.00 0.00 0.00 27 1012.6
20260504200004 28 278 3.2 6.4 0.00 0.00 0.00 29 1012.7
20260504195504 28 175 3.2 4.8 0.00 0.00 0.00 27 1012.6
20260504195004 28 58 1.6 3.2 0.00 0.00 0.00 27 1012.8
20260504194504 27 324 0.0 3.2 0.00 0.00 0.00 27 1013.0
20260504194004 27 187 1.6 6.4 0.00 0.00 0.00 28 1012.8
20260504193504 28 281 4.8 6.4 0.00 0.00 0.00 28 1012.8
20260504193042 27 97 8.0 11.3 0.00 0.00 0.00 27 1012.9
20260504192503 27 105 1.6 4.8 0.00 0.00 0.00 27 1012.9
20260504192003 26 188 4.8 6.4 0.00 0.00 0.00 28 1013.1
20260504191503 27 320 4.8 11.3 0.00 0.00 0.00 28 1013.3
20260504191003 27 66 0.0 4.8 0.00 0.00 0.00 28 1013.1
20260504190504 27 287 0.0 6.4 0.00 0.00 0.00 29 1013.3
20260504190004 27 163 3.2 4.8 0.00 0.00 0.00 28 1013.4
20260504185503 26 205 3.2 11.3 0.00 0.00 0.00 28 1013.5
20260504185003 26 237 4.8 6.4 0.00 0.00 0.00 28 1013.4
20260504184503 27 175 6.4 9.7 0.00 0.00 0.00 28 1013.5
20260504184022 27 68 3.2 6.4 0.00 0.00 0.00 28 1013.7
20260504183522 27 189 4.8 8.0 0.00 0.00 0.00 28 1013.8
20260504183003 26 306 1.6 4.8 0.00 0.00 0.00 29 1013.7
20260504182503 26 96 1.6 6.4 0.00 0.00 0.00 28 1013.7
20260504182003 26 137 4.8 8.0 0.00 0.00 0.00 29 1013.8
20260504181503 26 201 6.4 6.4 0.00 0.00 0.00 31 1013.9
20260504181041 26 191 3.2 4.8 0.00 0.00 0.00 31 1013.6
20260504180522 25 182 3.2 6.4 0.00 0.00 0.00 31 1013.9
20260504180022 25 89 0.0 6.4 0.00 0.00 0.00 29 1014.1
20260504175503 25 85 3.2 4.8 0.00 0.00 0.00 29 1014.1
20260504175003 25 123 4.8 8.0 0.00 0.00 0.00 31 1014.0
20260504174503 25 187 4.8 6.4 0.00 0.00 0.00 31 1013.9
20260504174041 25 89 3.2 11.3 0.00 0.00 0.00 32 1014.1
20260504173522 25 171 3.2 11.3 0.00 0.00 0.00 32 1013.9
20260504173041 25 210 3.2 6.4 0.00 0.00 0.00 30 1014.3
20260504172522 25 67 3.2 4.8 0.00 0.00 0.00 30 1014.3
20260504172003 25 218 3.2 6.4 0.00 0.00 0.00 30 1014.6
20260504171503 24 359 1.6 6.4 0.00 0.00 0.00 31 1014.7
20260504171003 24 108 0.0 6.4 0.00 0.00 0.00 30 1014.9
20260504170503 24 216 0.0 4.8 0.00 0.00 0.00 32 1014.9
20260504151004 21 55 0.0 4.8 0.00 0.00 0.00 46 1016.1
20260504150504 21 158 0.0 4.8 0.00 0.00 0.00 48 1016.2